AUA487 LOWW-LPMA

Flight info

Callsign AUA487
Flight time N/A
Altitude 32000
Route OSPEN DCT ABRUK DCT SETAL DCT DETSA/N0451F330 DCT GEKBA DCT VAMTU DCT KOLON DCT GANGU DCT PADKO/N0451F350 DCT DIVKO DCT NILDU DCT NENDA DCT BCN DCT ANTON DCT XIKEN DCT OSLAP DCT SALAS DCT RAMON DCT NEXAS DCT DISVU DCT ADUXO DCT CJN DCT PALIO DCT AKOKI DCT GOTOR DCT TLD DCT NATPA DCT MELON DCT CCS DCT NARTA DCT GALPA DCT RAKUN
Aircraft A321/M-SDE3FGHIRWY/LB1

Departure

Time 2026-04-26 08:18
Airport Vienna International Airport (LOWW)

Arrival

Time N/A
Airport Cristiano Ronaldo International Airport (LPMA)
Time Latitude Longitude Altitude Speed Heading
2026-04-26 07:50 48.11919 16.56716 621 ft 0 kts 206°
2026-04-26 08:08 48.11932 16.56726 624 ft 4 kts 206°
2026-04-26 08:09 48.11956 16.56743 621 ft 4 kts 207°
2026-04-26 08:09 48.11979 16.56764 621 ft 4 kts 213°
2026-04-26 08:09 48.11997 16.56780 622 ft 4 kts 161°
2026-04-26 08:09 48.11999 16.56781 621 ft 4 kts 115°
2026-04-26 08:10 48.12009 16.56745 619 ft 3 kts 116°
2026-04-26 08:10 48.12010 16.56741 620 ft 0 kts 116°
2026-04-26 08:13 48.12008 16.56749 617 ft 4 kts 116°
2026-04-26 08:13 48.11980 16.56831 617 ft 11 kts 116°
2026-04-26 08:13 48.11948 16.56928 613 ft 10 kts 116°
2026-04-26 08:13 48.11913 16.57033 620 ft 16 kts 116°
2026-04-26 08:14 48.11864 16.57185 617 ft 15 kts 115°
2026-04-26 08:14 48.11821 16.57319 613 ft 10 kts 116°
2026-04-26 08:14 48.11804 16.57366 623 ft 0 kts 123°
2026-04-26 08:14 48.11809 16.57430 622 ft 12 kts 79°
2026-04-26 08:15 48.11725 16.57507 617 ft 19 kts 163°
2026-04-26 08:15 48.11601 16.57560 616 ft 18 kts 165°
2026-04-26 08:15 48.11483 16.57609 617 ft 20 kts 164°
2026-04-26 08:15 48.11341 16.57669 614 ft 21 kts 164°
2026-04-26 08:16 48.11246 16.57672 615 ft 13 kts 204°
2026-04-26 08:16 48.11155 16.57603 612 ft 14 kts 205°
2026-04-26 08:16 48.11085 16.57641 619 ft 11 kts 143°
2026-04-26 08:16 48.11020 16.57634 618 ft 10 kts 207°
2026-04-26 08:17 48.10935 16.57563 618 ft 14 kts 217°
2026-04-26 08:17 48.10946 16.57432 622 ft 27 kts 296°
2026-04-26 08:17 48.11135 16.56861 612 ft 93 kts 296°
2026-04-26 08:17 48.11496 16.55753 613 ft 142 kts 296°
2026-04-26 08:18 48.11979 16.54273 821 ft 163 kts 297°
2026-04-26 08:18 48.12374 16.52705 1475 ft 167 kts 276°
2026-04-26 08:18 48.11916 16.51037 2009 ft 191 kts 234°
2026-04-26 08:18 48.10781 16.49817 2337 ft 211 kts 212°
2026-04-26 08:19 48.09650 16.48440 2605 ft 215 kts 243°
2026-04-26 08:19 48.08987 16.46366 2789 ft 230 kts 256°
2026-04-26 08:19 48.08435 16.43978 3076 ft 252 kts 257°
2026-04-26 08:19 48.07892 16.41483 3978 ft 252 kts 258°
2026-04-26 08:20 48.07334 16.38965 4753 ft 258 kts 257°
2026-04-26 08:20 48.06713 16.36440 5604 ft 258 kts 255°
2026-04-26 08:20 48.06054 16.33968 6496 ft 255 kts 255°
2026-04-26 08:20 48.05374 16.31526 7268 ft 255 kts 254°
2026-04-26 08:21 48.04675 16.29066 7937 ft 259 kts 255°
2026-04-26 08:21 48.03959 16.26583 8612 ft 262 kts 254°
2026-04-26 08:21 48.03231 16.24071 9241 ft 265 kts 255°
2026-04-26 08:21 48.02494 16.21528 9841 ft 268 kts 255°
2026-04-26 08:22 48.01745 16.18939 10325 ft 277 kts 255°
2026-04-26 08:22 48.00962 16.16198 10472 ft 297 kts 254°
2026-04-26 08:22 48.00128 16.13272 10591 ft 314 kts 254°
2026-04-26 08:22 47.99248 16.10190 10712 ft 332 kts 253°
2026-04-26 08:23 47.98317 16.06948 10864 ft 347 kts 253°
2026-04-26 08:23 47.97350 16.03617 11271 ft 353 kts 252°
2026-04-26 08:23 47.96361 16.00235 11760 ft 357 kts 252°
2026-04-26 08:23 47.95362 15.96815 12264 ft 362 kts 252°
2026-04-26 08:24 47.94349 15.93354 12753 ft 366 kts 252°
2026-04-26 08:24 47.93331 15.89852 13255 ft 370 kts 252°
2026-04-26 08:24 47.92305 15.86321 13747 ft 373 kts 252°
2026-04-26 08:24 47.91265 15.82749 14154 ft 377 kts 252°
2026-04-26 08:25 47.90216 15.79150 14557 ft 381 kts 251°
2026-04-26 08:25 47.89156 15.75518 14976 ft 383 kts 251°
2026-04-26 08:25 47.88087 15.71865 15419 ft 386 kts 251°
2026-04-26 08:25 47.87009 15.68189 15835 ft 388 kts 251°
2026-04-26 08:26 47.85923 15.64498 16236 ft 391 kts 251°
2026-04-26 08:26 47.84831 15.60787 16627 ft 393 kts 251°
2026-04-26 08:26 47.83728 15.57045 16989 ft 396 kts 251°
2026-04-26 08:26 47.82621 15.53283 17335 ft 398 kts 251°
2026-04-26 08:27 47.81504 15.49494 17660 ft 401 kts 251°
2026-04-26 08:27 47.80379 15.45689 18043 ft 403 kts 251°
2026-04-26 08:27 47.79245 15.41860 18375 ft 406 kts 251°
2026-04-26 08:27 47.78103 15.38015 18688 ft 408 kts 250°
2026-04-26 08:28 47.76955 15.34150 18999 ft 409 kts 250°
2026-04-26 08:28 47.75803 15.30269 19303 ft 411 kts 250°
2026-04-26 08:28 47.74646 15.26377 19630 ft 413 kts 250°
2026-04-26 08:28 47.73479 15.22463 19947 ft 415 kts 250°
2026-04-26 08:29 47.72304 15.18534 20251 ft 417 kts 250°
2026-04-26 08:29 47.71122 15.14597 20577 ft 419 kts 250°
2026-04-26 08:29 47.70334 15.11978 20795 ft 420 kts 249°
2026-04-26 08:29 47.69141 15.08016 21103 ft 422 kts 249°
2026-04-26 08:30 47.67942 15.04027 21458 ft 424 kts 249°
2026-04-26 08:30 47.66347 14.98724 21911 ft 426 kts 250°
2026-04-26 08:30 47.65135 14.94697 22217 ft 428 kts 250°
2026-04-26 08:30 47.63919 14.90662 22508 ft 430 kts 249°
2026-04-26 08:31 47.62690 14.86603 22836 ft 432 kts 249°
2026-04-26 08:31 47.61450 14.82525 23123 ft 435 kts 249°
2026-04-26 08:31 47.60203 14.78431 23420 ft 437 kts 249°
2026-04-26 08:31 47.58949 14.74318 23720 ft 439 kts 248°
2026-04-26 08:32 47.58098 14.71530 23906 ft 441 kts 249°
2026-04-26 08:32 47.56420 14.66035 24230 ft 444 kts 249°
2026-04-26 08:32 47.55146 14.61867 24495 ft 445 kts 249°
2026-04-26 08:32 47.53951 14.57962 24747 ft 446 kts 249°
2026-04-26 08:33 47.52669 14.53771 24988 ft 448 kts 248°
2026-04-26 08:33 47.51382 14.49570 25243 ft 449 kts 248°
2026-04-26 08:33 47.50085 14.45349 25478 ft 451 kts 248°
2026-04-26 08:33 47.48783 14.41121 25738 ft 453 kts 248°
2026-04-26 08:34 47.47479 14.36914 26005 ft 455 kts 248°
2026-04-26 08:34 47.46157 14.32655 26250 ft 456 kts 248°
2026-04-26 08:34 47.45279 14.29831 26404 ft 457 kts 248°
2026-04-26 08:34 47.43951 14.25559 26630 ft 459 kts 248°
2026-04-26 08:35 47.42615 14.21266 26859 ft 461 kts 248°
2026-04-26 08:35 47.40820 14.15509 27142 ft 462 kts 248°
2026-04-26 08:35 47.39930 14.12656 27273 ft 463 kts 248°
2026-04-26 08:35 47.38581 14.08330 27460 ft 464 kts 248°
2026-04-26 08:36 47.37229 14.04000 27654 ft 466 kts 248°
2026-04-26 08:36 47.35870 13.99656 27833 ft 467 kts 248°
2026-04-26 08:36 47.34507 13.95308 28045 ft 467 kts 248°
2026-04-26 08:36 47.33144 13.90970 28303 ft 466 kts 248°
2026-04-26 08:37 47.31787 13.86648 28569 ft 465 kts 248°
2026-04-26 08:37 47.30426 13.82327 28809 ft 464 kts 248°
2026-04-26 08:37 47.29065 13.78024 29045 ft 463 kts 248°
2026-04-26 08:37 47.27700 13.73726 29289 ft 463 kts 248°
2026-04-26 08:38 47.26338 13.69438 29527 ft 462 kts 247°
2026-04-26 08:38 47.24977 13.65157 29764 ft 461 kts 248°
2026-04-26 08:38 47.23623 13.60889 29988 ft 460 kts 248°
2026-04-26 08:38 47.22267 13.56623 30203 ft 460 kts 247°
2026-04-26 08:39 47.20910 13.52368 30397 ft 459 kts 248°
2026-04-26 08:39 47.19552 13.48121 30601 ft 458 kts 247°
2026-04-26 08:39 47.18197 13.43892 30818 ft 457 kts 248°
2026-04-26 08:39 47.16843 13.39675 31037 ft 456 kts 248°
2026-04-26 08:40 47.15490 13.35468 31267 ft 455 kts 248°
2026-04-26 08:40 47.14140 13.31274 31506 ft 453 kts 248°
2026-04-26 08:40 47.12793 13.27096 31721 ft 452 kts 247°
2026-04-26 08:40 47.11447 13.22928 31947 ft 451 kts 247°
2026-04-26 08:41 47.10106 13.18771 32170 ft 450 kts 247°
2026-04-26 08:41 47.08768 13.14632 32392 ft 449 kts 247°
2026-04-26 08:41 47.07426 13.10493 32593 ft 448 kts 247°
2026-04-26 08:41 47.06085 13.06368 32811 ft 448 kts 246°
2026-04-26 08:42 47.04746 13.02254 33025 ft 447 kts 246°
2026-04-26 08:42 47.03406 12.98144 33221 ft 446 kts 246°
2026-04-26 08:42 47.02068 12.94045 33407 ft 446 kts 246°
2026-04-26 08:42 47.00730 12.89952 33607 ft 445 kts 246°
2026-04-26 08:43 46.99390 12.85867 33795 ft 444 kts 246°
2026-04-26 08:43 46.98052 12.81792 33955 ft 444 kts 246°
2026-04-26 08:43 46.96731 12.77775 34132 ft 443 kts 246°
2026-04-26 08:43 46.95395 12.73719 34185 ft 441 kts 246°
2026-04-26 08:44 46.92735 12.65644 34184 ft 440 kts 246°
2026-04-26 08:44 46.90075 12.57590 34201 ft 440 kts 246°
2026-04-26 08:45 46.87404 12.49551 34216 ft 439 kts 246°
2026-04-26 08:45 46.84736 12.41524 34227 ft 439 kts 246°
2026-04-26 08:46 46.82053 12.33493 34252 ft 440 kts 246°
2026-04-26 08:46 46.79029 12.25730 34265 ft 442 kts 234°